Content
SEND FEEDBACK

Daily
Averages
Monthly
Summary
United Kingdom

OUSTON MOOR, ENGLAND


Home > Europe > United Kingdom > England
Elevation: 485 feet     Latitude: 55 01N     Longitude: 001 52W

WEATHER
 
SELECT A DAY
Number of Records: 291,792;   Date Range: 7/1/96 - 12/25/14
 
SHARE

PRINT THIS DATA

[ ← Previous Day ]
WEATHER ALMANAC - SEPTEMBER 25, 2013
[ Next Day → ]
[ °C ]   °F
Weather ElementAverageHighLow
Temperature53.9 °F57.2 °F (10:50 am)46.4 °F (11:50 pm)
Dewpoint53.3 °F57.2 °F (10:50 am)46.4 °F (11:20 pm)
Humidity97.9 %100 % (1:20 am)88 % (7:20 pm)
Barometer29.92 in30.04 in (11:50 pm)29.86 in (5:50 am)
Wind Speed5.6 mph12.7 mph (1:50 pm)
Weather ElementAverage
Visibility3.3 mi
Wind DirectionENE (57.7 °)

Weather ElementTotal
Precipitation---
Heating Degree Days13.2 (Base 65)
Growing Degree Days1.8 (Base 50)
Averaged from 43 records on September 25, 2013
WEATHER CONDITIONS BREAKOUT
WIND DIRECTION BREAKOUT
WEATHER BY HOUR - SEPTEMBER 25, 2013
[ °C ]   °F
Local TimeTemperatureDewpointHumidityBarometerVisibilityWind DirectionWind SpeedGust SpeedPrecipitationEventsConditions
1:20 AM55.4 °F55.4 °F100 %29.92 in1.4 miCalmMostly Cloudy
1:50 AM55.4 °F55.4 °F100 %29.92 in2.2 miCalmMostly Cloudy
2:20 AM55.4 °F55.4 °F100 %29.92 in1.0 miCalmMostly Cloudy
2:50 AM55.4 °F55.4 °F100 %29.92 in0.7 miENE (70°)2.3 mphMostly Cloudy
3:50 AM55.4 °F55.4 °F100 %29.89 in0.3 miNE (40°)3.5 mphFogFog
4:50 AM55.4 °F55.4 °F100 %29.89 in0.2 miCalmFogFog
5:20 AM55.4 °F55.4 °F100 %29.89 in0.2 miCalmFogFog
5:50 AM55.4 °F55.4 °F100 %29.86 in0.3 miNE (40°)2.3 mphFogFog
6:20 AM55.4 °F55.4 °F100 %29.86 inCalmFogFog
6:50 AM55.4 °F55.4 °F100 %29.86 in0.7 miNNE (30°)2.3 mphMostly Cloudy
7:20 AM55.4 °F55.4 °F100 %29.86 in0.2 miNorth (10°)4.6 mphFogFog
7:50 AM55.4 °F55.4 °F100 %29.89 in0.2 miNorth (10°)4.6 mphFogFog
8:20 AM55.4 °F55.4 °F100 %29.89 in0.7 miVariable2.3 mphLight Drizzle
8:50 AM55.4 °F55.4 °F100 %29.89 in1.1 miNE (40°)2.3 mphLight Drizzle
9:20 AM55.4 °F55.4 °F100 %29.89 in1.1 miCalmLight Drizzle
9:50 AM55.4 °F55.4 °F100 %29.89 in1.9 miNorth (360°)3.5 mphLight Drizzle
10:20 AM55.4 °F55.4 °F100 %29.89 in2.8 miNorth (10°)3.5 mphMostly Cloudy
10:50 AM57.2 °F57.2 °F100 %29.89 in2.8 miNNE (20°)4.6 mphMostly Cloudy
11:20 AM57.2 °F57.2 °F100 %29.89 in5.6 miNorth (10°)5.8 mphMostly Cloudy
11:50 AM57.2 °F57.2 °F100 %29.89 in5.6 miNorth (10°)5.8 mphMostly Cloudy
12:20 PM57.2 °F57.2 °F100 %29.89 in3.7 miNorth (360°)8.1 mphLight Drizzle
12:50 PM57.2 °F57.2 °F100 %29.89 in3.7 miNorth (10°)10.4 mphLight Drizzle
1:20 PM57.2 °F57.2 °F100 %29.89 in1.4 miNNE (20°)9.2 mphLight Drizzle
1:50 PM55.4 °F55.4 °F100 %29.89 in1.4 miNorth (10°)12.7 mphLight Drizzle
2:20 PM55.4 °F55.4 °F100 %29.89 in2.2 miNNE (30°)12.7 mphLight Drizzle
2:50 PM53.6 °F53.6 °F100 %29.92 in2.2 miNNE (30°)10.4 mphLight Drizzle
3:20 PM53.6 °F53.6 °F100 %29.92 in2.2 miNNE (30°)9.2 mphDrizzle
3:50 PM51.8 °F51.8 °F100 %29.92 in2.2 miNNE (30°)11.5 mphDrizzle
4:20 PM51.8 °F51.8 °F100 %29.92 in4.3 miNNE (30°)11.5 mphLight Drizzle
4:50 PM51.8 °F51.8 °F100 %29.92 in6.2 miNNE (30°)12.7 mphLight Drizzle
5:20 PM51.8 °F50.0 °F94 %29.95 in6.2 miNNE (20°)10.4 mphMostly Cloudy
5:50 PM51.8 °F51.8 °F100 %29.95 in6.2 miNNE (20°)9.2 mphMostly Cloudy
6:50 PM51.8 °F50.0 °F94 %29.98 in6.2 miNNE (20°)8.1 mphMostly Cloudy
7:20 PM51.8 °F48.2 °F88 %29.98 in6.2 miNNE (20°)6.9 mphMostly Cloudy
7:50 PM51.8 °F48.2 °F88 %29.98 in6.2 miNNE (20°)5.8 mphMostly Cloudy
8:20 PM51.8 °F50.0 °F94 %29.98 in6.2 miNNE (20°)5.8 mphScattered Clouds
8:50 PM51.8 °F48.2 °F88 %30.01 in6.2 miNNE (20°)5.8 mphScattered Clouds
9:20 PM51.8 °F48.2 °F88 %30.01 in6.2 miNNE (20°)6.9 mphPartly Cloudy
9:50 PM50.0 °F48.2 °F94 %30.01 in6.2 miNorth (10°)4.6 mphPartly Cloudy
10:20 PM50.0 °F48.2 °F94 %30.01 in6.2 miNorth (10°)5.8 mphPartly Cloudy
10:50 PM50.0 °F48.2 °F94 %30.01 in6.2 miNorth (360°)4.6 mphPartly Cloudy
11:20 PM48.2 °F46.4 °F93 %30.01 in6.2 miNorth (360°)4.6 mphScattered Clouds
11:50 PM46.4 °F46.4 °F100 %30.04 in6.2 miNorth (350°)4.6 mphPartly Cloudy
Hourly data recorded from EGNT, located miles away from Ouston Moor, England







STORIES FROM OUR PARTNERS